Temperature
17 17 17 17 17 17 17 17 17 17 17 16 16 16 16 16 16 16 16 16 15 15 15 15 15 15 15 15 15 16 16 16 16 16 16 16 16 16 16 16 16 16 15
17 17 17 17 17 17 17 16 16 16 16 16 16 16 16 16 16 16 16 16 15 15 15 15 15 15 15 15 15 15 15 15 15 15 15 15 15 15 15 15 15 15 15
17 17 17 17 17 17 17 16 16 16 16 16 16 16 16 16 16 16 16 15 15 15 15 15 15 15 15 15 15 15 15 15 15 15 15 15 15 15 15 15 15 15 15
17 17 17 17 17 17 16 16 16 16 16 16 16 16 16 16 16 16 15 15 15 15 15 15 15 15 15 15 15 15 15 15 14 14 14 15 15 15 15 15 15 15 15
17 17 17 17 17 16 16 16 16 16 16 16 16 16 16 16 16 16 15 15 15 15 15 15 15 15 15 15 14 14 14 14 14 14 14 14 14 14 14 14 14 14 14
17 17 17 17 16 16 16 16 16 16 16 16 16 16 16 16 16 16 15 15 15 15 15 15 15 14 14 14 14 14 14 14 14 13 13 13 13 13 13 13 13 13 13
17 17 17 17 16 16 16 16 16 16 16 16 16 16 16 16 15 15 15 15 15 15 15 15 14 14 14 14 14 14 13 13 13 13 13 13 13 13 13 13 12 12 12
17 17 17 17 16 16 16 16 16 16 16 16 16 16 15 15 15 15 15 15 15 14 14 14 14 14 14 13 13 13 13 13 13 12 12 12 12 12 12 12 11 11 11
17 17 17 16 16 16 16 16 16 16 16 15 15 15 15 15 15 14 14 14 14 14 14 13 13 13 13 13 13 13 12 12 12 12 11 11 11 11 11 11 11 11 11
17 17 16 16 16 16 16 16 15 15 15 15 15 14 14 14 14 14 14 14 13 13 13 13 12 12 12 12 12 12 12 11 11 11 11 11 11 10 10 10 10 10 10
16 16 16 16 16 15 15 15 15 14 14 14 14 13 13 13 13 13 13 13 13 12 12 12 12 12 12 11 11 11 11 11 11 10 10 10 10 10 9 9 9 9 9
15 15 15 15 15 15 14 14 14 14 14 13 13 13 12 12 12 12 12 12 12 12 11 11 11 11 11 11 10 10 10 10 10 9 9 9 9 9 9 8 8 8 8
15 15 14 14 14 14 14 13 13 13 13 12 12 12 11 11 11 11 12 11 11 11 11 10 10 10 10 9 9 9 9 9 9 9 8 8 8 8 7 7 7 7 7
14 14 14 13 13 13 13 13 12 12 12 12 11 11 11 11 11 11 11 10 10 10 9 9 9 9 8 8 8 8 8 8 7 7 7 7 6 6 7 7 7 7 7
13 13 13 13 13 12 12 11 11 11 11 11 11 11 10 10 9 9 9 9 9 9 8 8 8 8 8 7 7 7 7 6 6 6 6 6 6 6 6 6 6 6 6
13 12 12 12 12 12 11 11 10 10 10 10 10 10 9 9 9 9 8 8 8 8 8 8 7 7 7 6 6 6 5 5 5 5 5 5 5 5 5 5 4 4 4
12 11 11 11 11 11 11 11 10 9 9 9 9 8 8 8 8 8 7 7 7 7 7 7 6 6 5 5 5 4 4 4 4 4 4 4 4 4 4 4 3 3 3
11 11 11 10 10 10 10 10 9 9 8 8 7 7 7 7 7 7 7 7 6 6 6 5 5 4 4 4 4 3 3 3 3 3 3 3 3 3 3 2 2 2 2
11 10 10 10 10 9 9 9 9 8 8 7 7 7 6 6 6 6 6 6 5 5 4 4 4 3 3 3 3 3 3 2 2 2 2 2 2 2 2 2 2 1 1
10 10 10 10 9 9 9 8 8 8 7 7 6 6 6 6 6 5 5 5 4 4 3 3 3 3 3 2 2 2 2 2 2 2 2 1 1 1 1 1 1 1 1
10 9 9 9 9 8 8 8 7 7 7 6 6 5 5 5 5 4 4 4 3 3 3 3 2 2 2 2 2 2 1 1 1 1 1 1 1 1 1 0 0 0 0
9 9 9 9 8 8 8 7 7 6 6 6 5 5 5 4 4 4 3 3 3 3 2 2 2 2 2 1 1 1 1 1 1 1 1 1 0 0 0 0 0 -0 -0
9 9 8 8 8 7 7 6 6 6 5 5 5 4 4 4 3 3 3 3 2 2 2 2 2 1 1 1 1 1 1 1 1 1 0 0 0 0 -0 -0 -0 -0 -0
8 8 8 8 7 7 6 6 6 5 5 5 4 4 4 3 3 3 2 2 2 2 1 1 1 1 1 1 0 0 0 0 0 0 0 0 -0 -0 -0 -1 -1 -1 -1
8 8 7 7 7 6 6 6 5 5 5 4 4 4 3 3 3 2 2 2 1 1 1 1 1 0 0 0 0 0 0 0 0 -0 -0 -0 -0 -1 -1 -1 -1 -1 -1
7 7 7 7 6 6 6 5 5 5 4 4 4 3 3 3 2 2 2 1 1 1 1 1 0 0 0 0 0 0 -0 -0 -0 -0 -0 -0 -1 -1 -1 -1 -1 -1 -1
Wind_Speed
8 7 7 7 7 7 7 7 7 6 7 8 8 7 7 6 6 6 6 6 6 5 4 5 4 3 3 3 3 3 3 3 3 2 2 2 2 2 3 4 6 7 8
7 7 7 7 7 7 7 7 7 7 7 8 8 8 7 7 7 7 7 7 7 7 6 5 5 4 4 3 3 3 3 4 4 4 2 2 2 2 2 2 4 5 6
7 7 7 7 7 7 7 6 7 7 7 7 7 7 7 7 7 7 7 7 7 7 6 6 5 5 5 4 4 4 3 3 3 3 2 1 2 1 1 2 2 3 4
8 8 7 7 7 7 6 6 7 7 7 6 6 7 6 6 6 7 7 7 7 6 6 6 6 6 6 6 5 5 3 3 3 2 2 2 2 2 1 2 3 2 3
8 8 8 7 7 6 6 6 6 6 7 6 6 5 5 5 5 6 7 7 7 6 5 5 5 5 6 4 3 3 3 3 2 2 2 1 1 1 2 2 3 3 3
8 8 7 7 7 7 6 6 6 5 5 6 6 6 5 4 6 8 7 6 5 5 4 3 2 2 3 4 4 3 4 3 3 2 1 2 2 2 2 2 2 2 3
7 7 6 7 6 6 6 6 6 6 6 5 5 5 4 4 5 6 7 5 4 3 3 2 1 1 2 2 2 2 2 2 3 3 3 3 3 3 2 2 2 3 4
6 6 6 6 6 5 6 6 6 5 5 5 4 4 3 2 4 5 5 5 4 3 2 2 2 1 2 2 3 2 2 1 0 1 2 2 2 2 2 2 3 4 4
5 5 6 6 6 6 6 6 5 5 5 4 4 4 4 2 3 5 6 5 4 3 3 2 2 2 2 3 4 3 2 2 4 4 2 2 3 3 1 0 1 2 3
5 5 5 6 6 6 6 5 5 5 5 6 6 5 5 4 5 5 6 5 5 4 4 4 6 5 6 5 4 3 2 2 3 4 5 6 5 6 5 2 1 2 2
4 5 5 6 6 6 7 6 7 7 8 8 8 7 7 7 7 7 6 4 5 5 5 5 5 9 9 8 7 5 3 2 3 4 4 5 5 5 5 5 3 1 2
7 6 6 6 6 7 8 8 8 8 9 8 8 8 7 7 8 8 9 8 7 7 6 6 7 12 13 12 9 9 8 6 5 5 5 5 5 5 5 6 5 3 2
9 9 8 9 8 8 9 9 7 7 7 7 7 8 7 7 8 13 13 13 12 9 9 12 13 13 12 11 14 13 9 7 6 6 6 5 5 5 5 5 6 6 4
12 10 10 10 11 10 9 8 7 7 7 8 8 8 8 7 7 7 8 10 12 11 10 12 14 15 12 11 10 10 8 7 6 6 5 5 5 6 6 6 5 6 5
12 12 11 11 12 13 12 10 9 8 6 8 7 7 8 8 6 9 8 8 7 8 9 9 9 8 9 9 9 9 8 8 8 7 6 6 6 6 6 6 5 5 4
12 11 10 10 10 11 13 14 19 16 18 16 13 12 10 12 13 15 15 15 14 12 10 9 8 8 8 8 8 8 8 7 7 6 6 6 6 6 6 6 6 5 6
12 11 9 10 10 10 10 12 12 14 18 18 16 16 15 14 15 15 16 16 14 13 11 9 8 7 7 7 6 6 6 6 5 6 6 6 6 6 6 6 7 6 6
12 12 11 9 9 9 10 10 10 11 10 9 12 15 15 15 15 14 13 13 11 10 8 7 7 6 6 5 5 5 5 5 6 6 6 6 6 6 6 7 7 7 7
11 9 9 9 9 9 10 10 10 10 10 8 8 9 12 13 15 14 12 9 8 7 7 6 5 5 5 4 4 4 5 5 5 5 6 6 6 6 6 6 7 8 8
9 13 11 9 9 9 9 9 9 9 9 8 7 6 5 7 8 8 7 7 7 6 5 5 5 4 4 4 4 4 5 5 6 6 6 6 6 6 7 7 7 7 7
9 10 13 10 8 8 8 8 8 8 8 7 6 6 7 7 7 7 6 6 5 5 4 4 4 4 4 4 4 5 5 5 5 6 6 6 6 6 6 7 7 7 7
8 9 8 9 8 8 8 8 8 8 8 8 6 7 9 7 6 6 5 5 4 4 4 4 4 4 4 3 4 4 5 5 6 6 6 6 6 6 7 7 7 8 8
9 10 9 8 8 9 9 8 7 7 7 6 6 6 5 5 5 5 4 4 4 4 5 5 4 4 4 4 4 4 4 5 6 6 6 6 6 7 7 7 9 9 9
9 9 9 8 8 7 7 7 7 7 7 6 6 5 4 4 4 4 3 3 4 4 5 4 4 4 5 5 5 5 6 7 8 7 7 7 7 7 7 7 8 9 9
8 8 8 7 7 7 7 6 6 6 6 5 5 4 4 3 3 3 2 3 3 3 4 4 3 4 5 6 7 8 11 12 10 9 8 6 7 7 8 8 8 9 9
8 8 7 6 6 6 6 6 5 5 5 4 4 4 3 3 2 2 2 2 2 2 2 3 4 5 6 7 8 11 12 13 13 12 8 7 7 7 8 7 9 8 9
Wind_Direction
174 173 169 170 170 171 179 185 184 180 179 181 183 182 182 184 182 179 184 183 187 191 190 191 198 186 188 191 182 179 183 177 210 259 261 275 271 278 284 257 252 249 252
173 169 170 169 169 175 185 188 184 184 186 186 181 181 186 188 185 186 192 192 194 197 198 193 202 191 193 194 190 193 196 194 200 234 261 271 265 279 279 276 271 262 258
169 171 170 172 176 184 189 188 185 185 185 183 178 184 190 189 191 197 197 196 199 201 195 196 203 193 202 202 199 202 205 200 200 216 251 265 282 297 303 294 290 283 276
169 173 178 183 185 187 186 186 187 185 181 180 184 188 189 189 193 197 197 196 199 202 201 202 205 203 209 204 204 207 200 193 193 212 243 266 278 296 297 293 299 294 295
170 179 189 187 184 184 187 187 183 181 185 180 179 181 182 184 195 190 191 192 192 196 196 199 203 201 201 193 194 200 191 195 200 216 241 260 283 296 282 280 279 294 291
175 185 184 181 183 186 184 177 172 176 177 172 175 174 177 196 197 186 180 181 181 185 189 191 192 191 188 173 169 164 163 180 199 206 227 245 273 275 279 278 284 297 293
176 179 176 176 180 183 176 166 170 176 168 167 171 168 175 188 180 174 172 161 161 169 176 173 170 154 169 162 153 147 155 170 184 193 217 241 258 264 263 274 260 259 268
172 176 173 170 174 168 163 168 171 164 160 159 156 158 152 136 134 144 148 142 130 132 144 149 146 120 119 139 129 106 84 56 118 185 219 252 265 271 251 269 274 275 272
165 169 167 163 162 158 161 162 156 144 136 129 120 124 120 98 110 141 142 133 122 107 94 92 122 118 80 118 120 111 79 38 50 55 40 10 5 359 339 305 302 296 293
171 163 157 153 152 156 155 139 123 121 120 112 97 89 90 71 61 95 121 123 118 106 84 70 69 75 65 79 100 102 81 22 29 35 36 29 28 26 28 15 289 277 285
135 128 130 134 137 133 122 114 114 112 107 102 93 77 69 61 56 68 94 122 127 112 94 77 66 69 68 68 75 77 77 68 62 59 49 37 31 27 22 16 4 310 284
114 114 113 114 117 116 113 109 109 111 106 102 96 82 64 55 57 68 79 91 103 103 96 87 78 73 68 63 65 64 62 61 62 57 48 35 25 14 4 4 6 6 336
101 101 101 97 93 100 106 108 106 105 105 104 100 93 77 66 63 65 72 79 85 92 93 89 80 73 70 65 59 58 57 57 57 54 44 29 15 6 6 4 6 9 10
101 98 98 98 91 84 84 87 94 97 103 102 100 97 88 73 66 70 77 82 83 88 88 81 75 69 67 60 54 51 49 50 53 48 33 19 11 13 16 10 2 356 353
98 97 94 92 93 86 77 68 76 66 90 104 102 104 101 88 70 78 92 91 93 95 90 76 67 62 58 54 51 48 44 42 42 36 32 24 17 14 9 3 0 359 352
99 96 95 96 96 97 96 82 63 71 72 75 84 94 84 90 89 82 79 79 81 87 83 76 70 66 63 58 54 48 42 38 33 30 27 21 13 7 2 0 359 354 345
100 99 99 100 100 100 101 102 95 72 64 64 71 82 89 90 86 85 83 77 69 75 79 77 73 68 64 60 55 50 40 29 26 28 24 16 9 4 359 356 353 348 341
96 98 101 99 99 99 99 99 102 102 93 73 62 71 80 82 80 80 84 81 68 65 74 77 74 68 64 58 51 44 34 26 25 22 18 11 4 357 352 349 346 341 333
98 100 99 100 100 100 99 98 99 99 99 94 85 70 71 79 72 66 70 80 83 77 74 73 70 67 61 53 44 36 29 21 15 10 7 0 355 350 345 341 336 331 329
98 104 105 105 105 103 103 104 104 103 100 97 92 88 83 84 81 70 70 80 83 82 78 74 66 60 54 46 37 28 20 13 7 3 356 351 346 341 336 331 330 328 325
104 104 103 103 104 106 107 107 107 106 104 99 89 82 93 94 93 87 83 81 83 83 80 74 63 53 47 40 31 22 13 4 358 352 347 343 339 335 329 324 323 322 321
102 101 101 103 102 101 103 105 107 107 107 103 95 86 84 89 93 91 84 76 71 71 74 75 67 54 42 31 21 10 1 355 349 343 337 333 330 329 327 327 326 325 323
106 106 102 100 102 104 102 104 107 108 108 106 104 99 93 92 91 88 83 77 73 70 68 69 63 48 37 31 19 5 351 341 331 325 323 323 325 326 326 324 323 323 324
108 110 111 108 107 109 111 109 109 111 110 109 106 104 101 97 96 94 92 87 79 71 66 62 54 37 22 13 4 357 348 337 330 323 319 314 316 317 318 318 317 320 320
108 111 113 116 117 117 116 114 112 112 112 112 112 109 105 100 97 95 92 93 91 78 64 52 36 19 9 1 356 351 347 348 346 337 324 314 313 314 316 316 319 321 323
107 110 112 115 117 119 120 120 119 119 120 121 121 119 114 108 104 101 100 100 92 72 46 26 10 3 358 354 350 349 350 350 347 344 333 321 320 320 324 320 323 326 328
Height
1503 1507 1510 1514 1518 1522 1526 1529 1532 1535 1538 1541 1544 1546 1548 1550 1552 1553 1555 1556 1558 1559 1560 1562 1563 1565 1566 1567 1568 1569 1569 1570 1570 1570 1570 1570 1571 1571 1571 1571 1571 1571 1571
1503 1506 1509 1513 1516 1520 1523 1526 1530 1532 1535 1538 1541 1543 1545 1547 1548 1550 1552 1553 1555 1556 1558 1559 1561 1562 1563 1564 1565 1565 1566 1566 1566 1566 1566 1567 1567 1567 1567 1567 1567 1567 1567
1502 1505 1508 1511 1514 1517 1520 1523 1527 1530 1532 1535 1537 1539 1541 1543 1545 1546 1548 1549 1551 1553 1555 1556 1558 1559 1560 1561 1561 1562 1562 1563 1563 1562 1562 1563 1563 1563 1563 1563 1563 1563 1562
1500 1503 1506 1509 1512 1515 1518 1521 1524 1527 1529 1532 1534 1536 1538 1540 1542 1543 1544 1546 1548 1550 1552 1553 1554 1555 1556 1557 1558 1558 1559 1559 1559 1559 1559 1559 1559 1558 1558 1558 1558 1558 1557
1498 1501 1504 1507 1510 1513 1516 1518 1521 1524 1527 1529 1532 1534 1536 1537 1538 1540 1541 1543 1544 1546 1548 1549 1551 1552 1553 1554 1554 1555 1555 1555 1555 1555 1555 1554 1554 1554 1554 1553 1552 1552 1551
1496 1499 1502 1505 1508 1510 1513 1516 1518 1521 1524 1527 1529 1531 1532 1534 1536 1537 1539 1540 1542 1543 1545 1546 1548 1548 1549 1550 1550 1551 1551 1551 1551 1551 1550 1550 1550 1550 1549 1548 1548 1547 1546
1495 1498 1500 1503 1505 1508 1511 1513 1516 1518 1521 1523 1526 1528 1530 1532 1534 1535 1537 1538 1539 1540 1542 1543 1544 1545 1546 1546 1547 1547 1547 1547 1547 1547 1547 1546 1546 1545 1545 1544 1543 1542 1541
1493 1496 1498 1500 1503 1506 1508 1510 1513 1516 1518 1520 1523 1525 1527 1529 1531 1533 1534 1535 1536 1537 1539 1540 1541 1542 1542 1543 1543 1543 1543 1543 1543 1543 1543 1542 1542 1541 1540 1540 1538 1537 1536
1491 1494 1496 1498 1501 1503 1505 1507 1510 1513 1515 1517 1520 1522 1524 1526 1528 1530 1531 1532 1533 1535 1536 1537 1538 1538 1539 1540 1540 1540 1540 1540 1540 1539 1539 1539 1538 1537 1536 1536 1534 1533 1531
1489 1492 1494 1496 1498 1501 1503 1505 1508 1510 1512 1515 1517 1519 1521 1524 1526 1527 1529 1530 1531 1532 1533 1535 1536 1536 1537 1537 1537 1537 1537 1537 1537 1536 1536 1535 1534 1533 1532 1531 1530 1529 1527
1488 1490 1493 1495 1497 1499 1502 1504 1506 1508 1511 1513 1515 1517 1519 1522 1524 1525 1527 1527 1529 1530 1532 1533 1533 1534 1535 1535 1535 1535 1534 1534 1534 1533 1532 1532 1531 1530 1529 1528 1526 1525 1523
1486 1489 1491 1494 1496 1498 1500 1503 1505 1508 1510 1512 1514 1516 1519 1521 1522 1524 1525 1526 1528 1529 1530 1531 1532 1532 1533 1533 1533 1532 1532 1532 1531 1530 1530 1529 1528 1527 1526 1525 1523 1522 1520
1486 1488 1491 1493 1495 1498 1500 1502 1505 1508 1509 1512 1514 1516 1519 1521 1522 1524 1525 1526 1527 1528 1528 1529 1530 1531 1531 1531 1531 1531 1530 1530 1529 1528 1527 1527 1526 1524 1523 1522 1521 1519 1517
1486 1488 1491 1494 1496 1498 1500 1503 1506 1509 1510 1512 1514 1516 1519 1521 1523 1524 1524 1525 1527 1528 1528 1528 1529 1530 1531 1531 1530 1530 1529 1529 1528 1527 1526 1525 1524 1523 1521 1519 1517 1515 1514
1488 1490 1493 1495 1497 1500 1502 1505 1508 1510 1513 1515 1517 1518 1520 1522 1524 1526 1526 1527 1528 1529 1529 1529 1530 1531 1531 1530 1530 1530 1529 1529 1528 1526 1525 1524 1522 1521 1518 1516 1514 1512 1510
1489 1492 1495 1498 1500 1502 1504 1508 1511 1514 1516 1519 1521 1522 1523 1525 1527 1528 1528 1529 1530 1531 1531 1530 1531 1531 1531 1531 1530 1530 1529 1528 1527 1525 1524 1522 1520 1518 1516 1514 1512 1510 1507
1492 1496 1499 1502 1504 1507 1509 1511 1514 1518 1521 1523 1524 1525 1527 1528 1529 1530 1531 1531 1532 1532 1532 1532 1532 1532 1532 1532 1531 1530 1529 1528 1526 1525 1523 1521 1519 1517 1514 1512 1510 1507 1505
1498 1501 1503 1506 1508 1511 1514 1516 1518 1521 1523 1525 1528 1529 1530 1531 1532 1532 1533 1533 1533 1533 1533 1533 1533 1533 1533 1533 1532 1531 1529 1528 1526 1524 1522 1520 1517 1515 1512 1510 1507 1505 1502
1504 1506 1509 1511 1514 1516 1518 1520 1522 1525 1527 1529 1530 1532 1533 1534 1534 1535 1535 1535 1534 1535 1535 1535 1535 1534 1534 1533 1532 1530 1529 1527 1525 1523 1520 1518 1515 1513 1510 1507 1505 1502 1499
1509 1512 1514 1517 1519 1521 1523 1525 1527 1529 1530 1532 1533 1535 1536 1536 1536 1536 1536 1536 1536 1536 1536 1536 1536 1535 1534 1533 1532 1530 1528 1526 1524 1521 1519 1516 1513 1511 1508 1505 1502 1500 1497
1515 1517 1519 1521 1523 1525 1527 1529 1530 1532 1533 1535 1536 1538 1538 1538 1538 1538 1538 1538 1538 1538 1537 1537 1536 1535 1534 1533 1531 1529 1527 1525 1522 1520 1517 1514 1511 1509 1506 1503 1501 1498 1495
1520 1521 1523 1525 1527 1529 1530 1532 1533 1535 1536 1537 1539 1540 1541 1540 1540 1540 1540 1540 1540 1539 1539 1538 1537 1536 1534 1532 1530 1528 1526 1524 1521 1518 1515 1513 1510 1507 1504 1501 1499 1496 1493
1524 1525 1527 1529 1530 1532 1533 1535 1536 1538 1539 1540 1541 1542 1542 1542 1542 1542 1542 1542 1541 1540 1539 1538 1537 1536 1534 1532 1529 1527 1525 1522 1520 1517 1514 1511 1508 1505 1503 1500 1497 1494 1491
1527 1529 1530 1532 1533 1535 1536 1538 1539 1540 1541 1542 1543 1543 1544 1544 1544 1544 1543 1543 1542 1541 1540 1538 1537 1535 1533 1531 1529 1527 1524 1521 1518 1516 1513 1510 1507 1504 1501 1498 1495 1492 1489
1531 1532 1533 1535 1536 1537 1539 1540 1541 1543 1543 1544 1545 1545 1545 1545 1545 1544 1544 1543 1542 1541 1540 1538 1537 1535 1533 1531 1528 1526 1523 1520 1518 1515 1512 1509 1506 1503 1500 1497 1494 1491 1488
1533 1535 1536 1537 1538 1540 1541 1542 1543 1544 1545 1545 1546 1546 1546 1546 1545 1545 1544 1543 1542 1541 1540 1538 1536 1534 1532 1530 1528 1525 1522 1520 1517 1514 1511 1508 1505 1502 1499 1496 1493 1490 1487